Regional Weather Roundup
Issued by NWS

Home | Current Version | Previous Version | Graphics & Text | Print | Product List | Glossary On
Versions: 1 2 3 4 5 6 7 8 9 10 11 12 13 14 15 16 17 18 19 20 21 22 23 24 25 26 27 28 29 30 31 32 33 34 35 36 37 38 39 40 41 42 43 44 45 46 47 48 49
000
ASUS45 KBOU 271807
RWRCO

WEATHER ROUNDUP FOR COLORADO
NATIONAL WEATHER SERVICE DENVER/BOULDER CO
1100 AM MST FRI FEB 27 2015

NOTE: "FAIR" INDICATES FEW OR NO CLOUDS BELOW 12000 FEET WITH NO
SIGNIFICANT WEATHER AND/OR OBSTRUCTIONS TO VISIBILITY.

COZ001>005-013-030-031-271900-
...NORTHWEST COLORADO...

CITY           SKY/WX    TMP DP  RH WIND       PRES   REMARKS
CRAIG          MOSUNNY   23  15  71 CALM      29.86F
HAYDEN         SUNNY     18  12  79 CALM      29.84F
MEEKER         MOSUNNY   21  15  78 CALM      29.84F
MOUNT WERNER   NOT AVBL
STEAMBOAT SPGS SUNNY     19  10  66 CALM      29.82F
WALDEN         CLOUDY     5   1  85 CALM      29.79S VSB 3/4
$$

COZ006>008-011-271900-
...WEST CENTRAL VALLEYS...

CITY           SKY/WX    TMP DP  RH WIND       PRES   REMARKS
GRAND JUNCTION CLOUDY    33  29  85 S8        29.84S WCI  26
MONTROSE       PTSUNNY   33  23  66 NE5       29.84S WCI  29
EAGLE          PTSUNNY   28  19  69 CALM      29.83F
RIFLE          MOSUNNY   31  20  63 CALM      29.83F
DELTA          LGT SNOW  33  30  88 CALM      29.85S
NUCLA          CLOUDY    34  23  64 SW9       29.87F WCI  26
$$

COZ017>023-064>068-271900-
...SOUTHWEST COLORADO...

CITY           SKY/WX    TMP DP  RH WIND       PRES   REMARKS
DURANGO        CLOUDY    28  23  81 E6        29.86S WCI  22
CORTEZ         PTSUNNY   31  26  82 W3        29.87S
PAGOSA SPRINGS FLURRIES  30  24  78 S10       29.85S WCI  21
TELLURIDE      CLOUDY    26  10  49 CALM      29.79S
WOLF CREEK PAS SNOW       9   9 100 SW22G32   29.76S VSB<1/4 WCI -11
$$

COZ009-010-012-014-032>034-037-058>063-271900-
...CENTRAL COLORADO...

CITY           SKY/WX    TMP DP  RH WIND       PRES   REMARKS
ASPEN          LGT SNOW  25  17  72 CALM      29.76S
BUENA VISTA    CLOUDY    10   0  64 CALM      29.83F HAZE
COPPER MTN     CLOUDY    14   9  79 W17       29.68R HAZE    WCI  -3
BERTHOUD PASS  HAZE       3  -4  72 MISG      29.65S VSB 1
COTTONWOOD PAS CLOUDY    14   9  79 CALM      29.73F
GUNNISON       MOSUNNY   19  18  93 CALM      29.82S
KREMMLING      SUNNY     19   9  63 CALM      29.83F
LEADVILLE      LGT SNOW  13   7  77 W3        29.71S
SALIDA         CLOUDY    12   5  73 CALM      29.93F
SUNLIGHT       LGT SNOW N/A N/A N/A CALM        N/A
WILKERSON PASS SUNNY     14  10  85 SW3       29.72S
$$

COZ069>075-271900-
...SAN LUIS VALLEY/SANGRE DE CRISTO MOUNTAINS...

CITY           SKY/WX    TMP DP  RH WIND       PRES   REMARKS
ALAMOSA        PTSUNNY   21  13  71 S10       29.83S WCI  10
LA VETA PASS   SNOW      14   9  79 MISG      29.75S VSB 1/4
SAGUACHE       FLURRIES  23  14  68 SE7       29.84S WCI  15
$$

COZ035-036-038>040-271900-
...NORTHERN COLORADO FRONT RANGE...

CITY           SKY/WX    TMP DP  RH WIND       PRES   REMARKS
DENVER INTL AP MOSUNNY   14   3  61 S12       29.97F WCI   0
DMNS CITY PARK   N/A     15   8  73 E2        29.98F
AURORA         MOSUNNY   14   2  58 S8        29.96F WCI   3
FRONT RANGE AP MOSUNNY   18   7  62 S14       29.98F WCI   4
ERIE MUNI ARPT SUNNY     11  10  92 NE5       30.01F WCI   3
BOULDER MUN AP LGT SNOW  12   7  79 N5        29.99S WCI   4
CENTENNIAL     MOSUNNY   13   2  61 SE3       29.94F
BROOMFIELD     PTSUNNY   14   7  73 N3        29.97F
FORT COLLINS   SUNNY     10   7  85 NE5       30.03S WCI   2
LONGMONT       MOSUNNY   26   9  48 N3        30.03F
$$

COZ041-046-047-076>085-087-088-271900-
...PIKES PEAK/PALMER DIVIDE AND SOUTHERN FOOTHILLS...

CITY           SKY/WX    TMP DP  RH WIND       PRES   REMARKS
COLO. SPRINGS  LGT SNOW   8   5  87 SE12      29.97F VSB 1   WCI  -7
A. F. ACADEMY  CLOUDY     8   1  71 SE14      29.92F WCI  -8
ELLICOTT       NOT AVBL
FALCON         LGT SNOW   8   4  84 SE12      29.93S WCI  -7
FORT CARSON    SNOW      10   5  82 SE8       29.98S VSB 1/2 WCI  -2
LIMON          LGT SNOW   9   5  84 S28       30.05S VSB 3/4 WCI -13
MONUMENT HILL  MOSUNNY   10   3  72 S17       29.86S HAZE    WCI  -7
TRINIDAD       SUNNY     16   8  71 E8        29.97F WCI   5
$$

COZ042>045-048>051-090-091-271900-
...NORTHEAST COLORADO...

CITY           SKY/WX    TMP DP  RH WIND       PRES   REMARKS
GREELEY ARPT   SUNNY     19   3  49 S10       30.03F WCI   8
AKRON          LGT SNOW  14   8  77 S23G32    30.10F WCI  -5
BURLINGTON     PTSUNNY   14   6  70 S25       30.19F HAZE    WCI  -5
WRAY           LGT SNOW  19  11  70 S16G23    30.23F WCI   5
STERLING       CLOUDY    19  10  68 S22       30.14F WCI   3
HOLYOKE        NOT AVBL
FORT MORGAN    CLOUDY    17   6  64 S17G26    30.09F WCI   1
$$

COZ086-089-092>099-271900-
...SOUTHEAST COLORADO...

CITY           SKY/WX    TMP DP  RH WIND       PRES   REMARKS
PUEBLO         LGT SNOW  18  10  71 CALM      30.06F
LA JUNTA       PTSUNNY   19  10  68 SE18      30.13S WCI   4
LAMAR          CLOUDY    15   7  70 SE22      30.21F HAZE    WCI  -3
SPRINGFIELD      N/A      9   5  84 S24       30.18F WCI -12
$$



USA.gov is the U.S. government's official web portal to all federal, state and local government web resources and services.